QPF
0.12 0.09 0.06 0.04 0.02 0.01 0.01 0.01 0.01 0.02 0.02 0.01 0.02 0.03 0.03 0.03 0.04 0.04 0.04 0.02 0.02 0.02 0.02 0.02 0.03 0.03 0.03 0.04 0.03 0.03 0.03 0.03 0.03 0.04 0.04 0.05 0.07 0.09
0.09 0.09 0.09 0.05 0.03 0.01 0.01 0.01 0.01 0.02 0.01 0.01 0.02 0.02 0.03 0.03 0.03 0.03 0.04 0.04 0.03 0.03 0.03 0.03 0.03 0.03 0.03 0.03 0.02 0.02 0.02 0.02 0.02 0.02 0.03 0.03 0.04 0.06
0.04 0.06 0.07 0.05 0.04 0.02 0.02 0.02 0.02 0.02 0.03 0.02 0.02 0.02 0.02 0.03 0.03 0.02 0.02 0.03 0.03 0.03 0.04 0.04 0.04 0.04 0.03 0.02 0.02 0.02 0.03 0.03 0.03 0.03 0.03 0.02 0.03 0.03
0.06 0.09 0.10 0.07 0.05 0.02 0.02 0.02 0.02 0.03 0.04 0.03 0.02 0.01 0.01 0.02 0.01 0.01 0.01 0.02 0.02 0.02 0.02 0.04 0.05 0.05 0.04 0.03 0.03 0.02 0.03 0.03 0.03 0.03 0.02 0.02 0.03 0.03
0.04 0.06 0.08 0.06 0.06 0.03 0.02 0.03 0.03 0.03 0.05 0.04 0.02 0.01 0.01 0.01 0.01 0.01 0.01 0.01 0.01 0.02 0.02 0.03 0.04 0.04 0.05 0.05 0.04 0.04 0.04 0.04 0.05 0.05 0.04 0.03 0.03 0.03
0.02 0.03 0.06 0.06 0.06 0.03 0.03 0.04 0.04 0.03 0.05 0.05 0.02 0.01 0.01 0.01 0.01 0.01 0.01 0.01 0.01 0.02 0.02 0.02 0.03 0.03 0.03 0.03 0.03 0.03 0.03 0.03 0.04 0.04 0.04 0.03 0.03 0.03
0.02 0.02 0.03 0.05 0.06 0.04 0.03 0.04 0.04 0.04 0.04 0.04 0.02 0.01 0.01 0.01 0.01 0.01 0.01 0.01 0.02 0.03 0.03 0.02 0.02 0.02 0.02 0.02 0.03 0.03 0.03 0.04 0.07 0.06 0.07 0.05 0.03 0.03
0.02 0.02 0.02 0.03 0.04 0.03 0.03 0.03 0.03 0.03 0.03 0.03 0.02 0.01 0.01 0.01 0.01 0.01 0.01 0.02 0.02 0.02 0.02 0.02 0.03 0.03 0.02 0.02 0.02 0.03 0.03 0.04 0.05 0.06 0.06 0.05 0.03 0.02
0.02 0.02 0.02 0.01 0.01 0.01 0.01 0.02 0.02 0.04 0.04 0.03 0.03 0.02 0.01 0.01 0.01 0.01 0.01 0.02 0.02 0.01 0.02 0.03 0.03 0.03 0.02 0.02 0.03 0.04 0.04 0.04 0.03 0.03 0.03 0.04 0.04 0.03
0.03 0.04 0.03 0.01 0.01 0.01 0.01 0.01 0.01 0.02 0.02 0.02 0.03 0.02 0.02 0.02 0.02 0.02 0.03 0.03 0.03 0.02 0.03 0.04 0.04 0.03 0.03 0.03 0.03 0.03 0.02 0.03 0.03 0.03 0.02 0.03 0.04 0.04
0.06 0.06 0.06 0.05 0.03 0.02 0.01 0.01 0.02 0.02 0.02 0.02 0.02 0.03 0.03 0.03 0.03 0.04 0.05 0.05 0.05 0.05 0.04 0.05 0.05 0.05 0.05 0.03 0.03 0.03 0.02 0.02 0.03 0.03 0.03 0.03 0.03 0.03
0.06 0.05 0.04 0.06 0.06 0.03 0.02 0.02 0.02 0.02 0.02 0.02 0.02 0.02 0.03 0.03 0.03 0.04 0.05 0.05 0.06 0.06 0.04 0.04 0.04 0.06 0.07 0.05 0.04 0.04 0.02 0.02 0.02 0.03 0.03 0.03 0.03 0.02
0.04 0.03 0.02 0.03 0.06 0.04 0.03 0.02 0.02 0.02 0.02 0.02 0.02 0.02 0.02 0.03 0.03 0.04 0.05 0.04 0.04 0.04 0.04 0.04 0.04 0.05 0.05 0.04 0.04 0.03 0.02 0.01 0.01 0.02 0.03 0.03 0.02 0.01
0.02 0.02 0.02 0.03 0.05 0.04 0.02 0.02 0.02 0.02 0.02 0.02 0.02 0.02 0.02 0.02 0.03 0.03 0.04 0.04 0.04 0.04 0.04 0.05 0.06 0.05 0.04 0.04 0.04 0.04 0.03 0.02 0.01 0.02 0.02 0.02 0.02 0.02
0.03 0.04 0.04 0.04 0.04 0.03 0.02 0.02 0.02 0.01 0.01 0.01 0.01 0.01 0.02 0.03 0.04 0.03 0.03 0.04 0.05 0.04 0.04 0.05 0.05 0.06 0.04 0.03 0.03 0.04 0.04 0.02 0.01 0.01 0.02 0.02 0.02 0.03
0.05 0.05 0.04 0.03 0.03 0.03 0.03 0.03 0.02 0.01 0.01 0.01 0.02 0.02 0.04 0.05 0.06 0.05 0.05 0.05 0.05 0.05 0.04 0.04 0.04 0.06 0.06 0.03 0.02 0.03 0.05 0.04 0.01 0.01 0.02 0.02 0.02 0.02
0.06 0.05 0.04 0.03 0.03 0.03 0.03 0.03 0.03 0.02 0.02 0.02 0.02 0.04 0.08 0.08 0.08 0.06 0.05 0.05 0.04 0.04 0.04 0.04 0.03 0.03 0.04 0.04 0.03 0.02 0.03 0.05 0.02 0.01 0.01 0.02 0.01 0.01
0.05 0.03 0.04 0.04 0.04 0.04 0.03 0.03 0.03 0.03 0.02 0.02 0.03 0.05 0.07 0.09 0.10 0.08 0.05 0.05 0.04 0.04 0.02 0.02 0.02 0.02 0.02 0.03 0.04 0.03 0.02 0.03 0.03 0.02 0.01 0.01 0.01 0.01
0.05 0.03 0.03 0.04 0.04 0.04 0.05 0.05 0.05 0.04 0.04 0.03 0.03 0.04 0.06 0.06 0.06 0.06 0.05 0.04 0.04 0.03 0.02 0.02 0.02 0.02 0.02 0.02 0.02 0.03 0.02 0.02 0.02 0.02 0.01 0.01 0.01 0.01
0.04 0.03 0.03 0.04 0.04 0.04 0.06 0.06 0.05 0.05 0.04 0.03 0.03 0.03 0.04 0.05 0.05 0.04 0.03 0.03 0.04 0.04 0.03 0.03 0.03 0.02 0.02 0.03 0.03 0.02 0.02 0.02 0.02 0.02 0.02 0.01 0.01 0.01
0.02 0.02 0.02 0.03 0.03 0.05 0.06 0.06 0.05 0.05 0.05 0.04 0.04 0.04 0.04 0.04 0.04 0.04 0.04 0.04 0.04 0.04 0.04 0.03 0.03 0.03 0.02 0.03 0.03 0.03 0.03 0.02 0.02 0.02 0.02 0.02 0.02 0.01
0.03 0.03 0.03 0.03 0.03 0.04 0.05 0.05 0.05 0.06 0.06 0.05 0.05 0.05 0.05 0.05 0.05 0.05 0.05 0.05 0.05 0.05 0.05 0.04 0.03 0.02 0.02 0.02 0.02 0.02 0.03 0.03 0.03 0.03 0.03 0.02 0.02 0.02
0.04 0.04 0.03 0.03 0.03 0.04 0.04 0.05 0.05 0.06 0.06 0.05 0.05 0.06 0.06 0.06 0.06 0.06 0.06 0.05 0.05 0.05 0.05 0.04 0.03 0.03 0.02 0.02 0.02 0.02 0.02 0.02 0.02 0.02 0.03 0.03 0.02 0.01
MSLP
1017.80 1018.03 1018.28 1018.53 1018.75 1018.93 1019.02 1019.00 1018.87 1018.62 1018.26 1017.81 1017.30 1016.79 1016.31 1015.90 1015.60 1015.41 1015.33 1015.34 1015.37 1015.39 1015.33 1015.15 1014.81 1014.33 1013.73 1013.07 1012.44 1011.92 1011.59 1011.52 1011.75 1012.25 1013.01 1013.94 1014.95 1015.97
1017.27 1017.46 1017.67 1017.89 1018.10 1018.27 1018.38 1018.40 1018.32 1018.12 1017.82 1017.44 1016.99 1016.53 1016.09 1015.70 1015.40 1015.20 1015.09 1015.07 1015.08 1015.09 1015.03 1014.89 1014.62 1014.22 1013.73 1013.19 1012.68 1012.26 1012.01 1011.99 1012.20 1012.66 1013.33 1014.14 1015.02 1015.90
1016.66 1016.80 1016.96 1017.14 1017.33 1017.49 1017.61 1017.66 1017.63 1017.51 1017.29 1016.98 1016.62 1016.23 1015.84 1015.49 1015.21 1015.01 1014.89 1014.84 1014.84 1014.84 1014.80 1014.69 1014.50 1014.20 1013.83 1013.42 1013.03 1012.72 1012.54 1012.54 1012.74 1013.13 1013.69 1014.36 1015.09 1015.82
1016.05 1016.14 1016.25 1016.39 1016.54 1016.69 1016.81 1016.89 1016.90 1016.84 1016.70 1016.48 1016.21 1015.89 1015.58 1015.28 1015.03 1014.84 1014.71 1014.65 1014.63 1014.63 1014.60 1014.54 1014.40 1014.20 1013.94 1013.66 1013.38 1013.16 1013.04 1013.06 1013.23 1013.54 1013.98 1014.51 1015.10 1015.69
1015.50 1015.55 1015.62 1015.72 1015.84 1015.96 1016.08 1016.17 1016.21 1016.19 1016.11 1015.97 1015.77 1015.53 1015.28 1015.04 1014.83 1014.65 1014.53 1014.47 1014.44 1014.42 1014.41 1014.37 1014.29 1014.17 1014.00 1013.81 1013.63 1013.48 1013.41 1013.43 1013.57 1013.81 1014.15 1014.56 1015.02 1015.49
1015.07 1015.09 1015.13 1015.20 1015.29 1015.39 1015.48 1015.56 1015.61 1015.61 1015.56 1015.47 1015.32 1015.15 1014.95 1014.76 1014.58 1014.43 1014.32 1014.25 1014.21 1014.20 1014.19 1014.17 1014.12 1014.05 1013.95 1013.84 1013.73 1013.64 1013.60 1013.63 1013.74 1013.93 1014.19 1014.51 1014.88 1015.27
1014.79 1014.81 1014.83 1014.88 1014.94 1015.00 1015.06 1015.11 1015.13 1015.12 1015.07 1014.99 1014.87 1014.73 1014.57 1014.41 1014.26 1014.14 1014.04 1013.98 1013.94 1013.92 1013.90 1013.89 1013.87 1013.83 1013.78 1013.72 1013.67 1013.63 1013.63 1013.67 1013.77 1013.93 1014.15 1014.42 1014.73 1015.07
1014.67 1014.69 1014.72 1014.75 1014.78 1014.80 1014.82 1014.81 1014.78 1014.72 1014.63 1014.52 1014.39 1014.25 1014.11 1013.98 1013.85 1013.75 1013.67 1013.61 1013.57 1013.56 1013.55 1013.54 1013.53 1013.52 1013.51 1013.49 1013.49 1013.50 1013.53 1013.61 1013.72 1013.88 1014.09 1014.34 1014.62 1014.95
1014.68 1014.72 1014.75 1014.77 1014.77 1014.75 1014.70 1014.62 1014.51 1014.37 1014.21 1014.05 1013.88 1013.72 1013.57 1013.44 1013.34 1013.25 1013.19 1013.14 1013.12 1013.11 1013.10 1013.11 1013.12 1013.14 1013.16 1013.19 1013.23 1013.30 1013.39 1013.51 1013.66 1013.85 1014.07 1014.33 1014.61 1014.93
1014.77 1014.83 1014.86 1014.87 1014.85 1014.77 1014.65 1014.49 1014.28 1014.05 1013.81 1013.57 1013.34 1013.14 1012.97 1012.83 1012.73 1012.65 1012.60 1012.58 1012.57 1012.57 1012.58 1012.61 1012.64 1012.69 1012.75 1012.84 1012.94 1013.07 1013.23 1013.42 1013.63 1013.87 1014.13 1014.41 1014.70 1015.02
1014.87 1014.95 1014.99 1014.99 1014.93 1014.81 1014.62 1014.37 1014.07 1013.75 1013.41 1013.09 1012.79 1012.54 1012.34 1012.18 1012.07 1012.00 1011.96 1011.95 1011.95 1011.97 1012.01 1012.05 1012.12 1012.21 1012.32 1012.46 1012.64 1012.84 1013.08 1013.34 1013.62 1013.92 1014.23 1014.53 1014.84 1015.15
1014.92 1015.01 1015.06 1015.05 1014.97 1014.80 1014.55 1014.23 1013.86 1013.45 1013.04 1012.64 1012.29 1011.99 1011.75 1011.57 1011.44 1011.37 1011.33 1011.31 1011.32 1011.35 1011.40 1011.47 1011.56 1011.69 1011.85 1012.06 1012.30 1012.58 1012.90 1013.23 1013.59 1013.94 1014.29 1014.62 1014.94 1015.23
1014.89 1014.98 1015.03 1015.01 1014.91 1014.72 1014.43 1014.06 1013.64 1013.19 1012.72 1012.28 1011.89 1011.55 1011.28 1011.07 1010.93 1010.83 1010.77 1010.74 1010.74 1010.76 1010.80 1010.88 1010.99 1011.15 1011.35 1011.61 1011.91 1012.25 1012.63 1013.03 1013.43 1013.83 1014.21 1014.56 1014.88 1015.16
1014.73 1014.83 1014.88 1014.86 1014.75 1014.55 1014.25 1013.88 1013.44 1012.98 1012.51 1012.06 1011.65 1011.30 1011.01 1010.78 1010.60 1010.47 1010.37 1010.30 1010.26 1010.25 1010.27 1010.33 1010.44 1010.60 1010.82 1011.10 1011.43 1011.81 1012.23 1012.66 1013.10 1013.52 1013.91 1014.27 1014.58 1014.84
1014.47 1014.56 1014.61 1014.59 1014.49 1014.30 1014.03 1013.68 1013.28 1012.86 1012.42 1012.01 1011.62 1011.28 1010.98 1010.73 1010.52 1010.34 1010.18 1010.05 1009.95 1009.88 1009.85 1009.86 1009.94 1010.07 1010.28 1010.55 1010.88 1011.26 1011.68 1012.11 1012.55 1012.96 1013.35 1013.69 1013.98 1014.23
1014.11 1014.20 1014.24 1014.23 1014.15 1013.99 1013.76 1013.48 1013.15 1012.81 1012.45 1012.10 1011.78 1011.47 1011.19 1010.93 1010.69 1010.46 1010.24 1010.03 1009.85 1009.70 1009.59 1009.53 1009.54 1009.63 1009.78 1010.01 1010.30 1010.64 1011.02 1011.41 1011.81 1012.18 1012.53 1012.84 1013.12 1013.35
1013.69 1013.76 1013.79 1013.79 1013.73 1013.61 1013.45 1013.26 1013.03 1012.80 1012.55 1012.30 1012.06 1011.82 1011.58 1011.32 1011.06 1010.79 1010.51 1010.23 1009.96 1009.72 1009.53 1009.39 1009.32 1009.32 1009.40 1009.56 1009.77 1010.04 1010.33 1010.65 1010.96 1011.27 1011.55 1011.81 1012.05 1012.27
1013.23 1013.28 1013.29 1013.28 1013.24 1013.18 1013.09 1012.98 1012.87 1012.75 1012.63 1012.51 1012.37 1012.21 1012.02 1011.80 1011.54 1011.24 1010.92 1010.59 1010.25 1009.94 1009.67 1009.45 1009.30 1009.22 1009.22 1009.28 1009.39 1009.55 1009.74 1009.94 1010.15 1010.35 1010.54 1010.73 1010.91 1011.10
1012.79 1012.79 1012.77 1012.74 1012.70 1012.67 1012.63 1012.61 1012.60 1012.60 1012.60 1012.59 1012.56 1012.50 1012.38 1012.21 1011.98 1011.69 1011.36 1011.01 1010.64 1010.29 1009.98 1009.71 1009.50 1009.35 1009.26 1009.23 1009.24 1009.28 1009.34 1009.41 1009.48 1009.56 1009.64 1009.72 1009.83 1009.96
1012.37 1012.30 1012.23 1012.17 1012.11 1012.08 1012.07 1012.11 1012.17 1012.26 1012.36 1012.46 1012.52 1012.55 1012.52 1012.41 1012.24 1012.00 1011.71 1011.38 1011.04 1010.70 1010.39 1010.11 1009.88 1009.69 1009.54 1009.43 1009.34 1009.27 1009.20 1009.13 1009.05 1008.99 1008.93 1008.91 1008.91 1008.97
1011.99 1011.85 1011.70 1011.57 1011.47 1011.41 1011.40 1011.45 1011.55 1011.69 1011.85 1012.02 1012.17 1012.28 1012.33 1012.31 1012.22 1012.07 1011.86 1011.61 1011.34 1011.06 1010.80 1010.57 1010.36 1010.17 1010.00 1009.84 1009.67 1009.50 1009.31 1009.10 1008.89 1008.68 1008.48 1008.32 1008.22 1008.18
1011.65 1011.41 1011.18 1010.97 1010.80 1010.68 1010.63 1010.65 1010.75 1010.89 1011.08 1011.29 1011.49 1011.67 1011.80 1011.87 1011.88 1011.84 1011.74 1011.61 1011.46 1011.30 1011.14 1010.99 1010.84 1010.69 1010.53 1010.35 1010.14 1009.89 1009.60 1009.28 1008.94 1008.60 1008.26 1007.97 1007.74 1007.59
1011.34 1011.01 1010.69 1010.38 1010.13 1009.93 1009.81 1009.78 1009.82 1009.94 1010.11 1010.32 1010.54 1010.76 1010.95 1011.11 1011.23 1011.31 1011.35 1011.37 1011.37 1011.35 1011.32 1011.29 1011.23 1011.15 1011.03 1010.86 1010.62 1010.33 1009.97 1009.56 1009.12 1008.66 1008.21 1007.80 1007.45 1007.18
Thickness
5691 5690 5688 5687 5687 5687 5686 5685 5682 5679 5680 5683 5684 5686 5686 5686 5686 5685 5684 5683 5682 5680 5679 5678 5677 5676 5675 5674 5673 5673 5672 5672 5671 5670 5670 5670 5669 5669
5687 5686 5685 5684 5684 5683 5682 5681 5681 5679 5677 5678 5679 5680 5680 5681 5681 5680 5679 5678 5677 5676 5675 5673 5672 5671 5670 5669 5669 5668 5667 5667 5666 5665 5665 5665 5665 5664
5684 5683 5682 5682 5681 5680 5678 5677 5676 5675 5674 5675 5674 5675 5675 5675 5675 5675 5674 5673 5672 5671 5670 5669 5668 5667 5666 5665 5664 5664 5663 5662 5661 5661 5660 5660 5660 5659
5680 5679 5678 5678 5677 5675 5674 5673 5672 5672 5670 5669 5669 5669 5670 5670 5670 5669 5669 5669 5668 5667 5666 5665 5664 5662 5661 5661 5660 5659 5658 5658 5657 5656 5656 5656 5655 5654
5676 5675 5675 5674 5672 5671 5670 5669 5668 5668 5666 5665 5664 5664 5664 5664 5663 5663 5663 5662 5663 5662 5661 5660 5659 5658 5657 5656 5655 5655 5654 5654 5653 5652 5651 5651 5650 5649
5673 5672 5671 5671 5669 5668 5667 5666 5664 5663 5661 5660 5659 5659 5658 5657 5656 5656 5656 5656 5656 5657 5656 5655 5654 5653 5652 5652 5651 5651 5650 5649 5649 5648 5647 5646 5645 5644
5668 5668 5668 5668 5667 5665 5664 5662 5660 5658 5656 5655 5654 5653 5653 5651 5651 5651 5650 5650 5650 5650 5650 5649 5649 5648 5648 5647 5647 5646 5645 5645 5644 5643 5642 5641 5641 5639
5664 5663 5663 5663 5662 5661 5660 5659 5657 5654 5652 5650 5650 5649 5648 5648 5646 5646 5644 5644 5644 5644 5643 5643 5643 5643 5643 5643 5643 5642 5641 5640 5639 5638 5637 5636 5635 5634
5659 5657 5658 5658 5657 5656 5655 5653 5652 5651 5650 5648 5647 5646 5645 5645 5643 5641 5639 5639 5638 5639 5637 5638 5638 5638 5639 5639 5638 5637 5636 5635 5634 5633 5632 5631 5629 5628
5653 5653 5652 5651 5651 5650 5649 5648 5647 5646 5645 5644 5644 5644 5643 5642 5640 5639 5636 5634 5633 5633 5633 5633 5634 5634 5634 5634 5633 5632 5631 5630 5629 5628 5626 5625 5624 5622
5648 5648 5647 5646 5646 5644 5643 5642 5642 5641 5641 5640 5640 5639 5638 5637 5635 5633 5631 5630 5630 5630 5629 5628 5629 5628 5629 5629 5629 5628 5626 5625 5624 5622 5621 5620 5618 5616
5642 5641 5641 5641 5640 5639 5638 5637 5636 5636 5635 5635 5633 5633 5632 5632 5630 5629 5629 5627 5626 5626 5626 5624 5624 5622 5623 5624 5623 5622 5621 5620 5619 5617 5616 5614 5612 5610
5637 5636 5636 5635 5634 5633 5633 5632 5632 5631 5629 5628 5627 5627 5627 5627 5626 5626 5625 5624 5624 5624 5623 5620 5619 5617 5616 5617 5617 5617 5615 5614 5613 5612 5611 5609 5607 5606
5631 5631 5631 5629 5628 5627 5626 5626 5626 5624 5624 5623 5622 5622 5622 5623 5622 5622 5621 5621 5621 5621 5620 5617 5615 5614 5612 5611 5612 5612 5610 5609 5608 5607 5605 5603 5602 5601
5626 5625 5624 5623 5622 5621 5620 5620 5619 5619 5619 5618 5618 5618 5617 5617 5617 5616 5616 5616 5616 5616 5615 5613 5612 5610 5608 5608 5608 5607 5606 5604 5603 5601 5600 5598 5597 5596
5618 5617 5617 5616 5616 5615 5614 5614 5613 5613 5613 5614 5614 5613 5612 5611 5611 5611 5611 5612 5611 5611 5609 5608 5607 5606 5605 5604 5603 5602 5601 5600 5598 5597 5595 5594 5592 5591
5611 5611 5611 5610 5610 5609 5609 5609 5609 5609 5608 5608 5608 5607 5606 5606 5606 5606 5606 5606 5605 5605 5604 5603 5602 5601 5600 5599 5598 5598 5597 5595 5594 5591 5590 5589 5588 5586
5607 5606 5605 5604 5604 5604 5603 5604 5604 5604 5604 5603 5602 5601 5601 5601 5601 5600 5600 5600 5599 5599 5599 5598 5596 5596 5595 5594 5592 5593 5592 5590 5589 5587 5585 5584 5584 5582
5601 5600 5599 5598 5598 5597 5597 5597 5598 5598 5597 5597 5597 5597 5596 5596 5595 5594 5594 5594 5594 5593 5593 5592 5591 5591 5591 5591 5590 5586 5585 5584 5583 5581 5580 5579 5579 5578
5594 5593 5592 5592 5591 5591 5591 5591 5591 5591 5591 5591 5591 5591 5590 5590 5589 5588 5588 5587 5587 5587 5586 5585 5585 5584 5584 5585 5584 5581 5578 5577 5577 5576 5575 5573 5571 5569
5586 5586 5585 5585 5585 5584 5584 5584 5584 5585 5585 5585 5584 5584 5583 5583 5583 5582 5582 5580 5579 5580 5580 5580 5580 5578 5577 5575 5576 5576 5573 5570 5569 5568 5568 5567 5567 5566
5580 5579 5579 5578 5578 5577 5577 5577 5578 5578 5578 5578 5578 5577 5576 5576 5576 5575 5574 5574 5573 5573 5574 5574 5572 5570 5569 5570 5570 5569 5567 5564 5562 5560 5559 5559 5560 5560
5573 5573 5572 5571 5571 5571 5571 5571 5572 5572 5572 5571 5571 5571 5570 5569 5569 5568 5568 5567 5566 5566 5565 5565 5564 5562 5562 5562 5562 5561 5560 5558 5557 5555 5554 5552 5551 5551